Weather History for KTOL - January, 2012

Change the Weather History Date:

Monday, January 23, 2012

  Actual Average Record
Temperature  
Mean Temperature 42 °F 25 °F  
Max Temperature 52 °F 33 °F 66 °F (1909)
Min Temperature 32 °F 18 °F -17 °F (1963)
Degree Days  
Heating Degree Days 23 40  
Month to date heating degree days 825 911  
Since 1 July heating degree days 2851 3236  
Cooling Degree Days 0 0  
Month to date cooling degree days 0 0  
Year to date cooling degree days 0 0  
Moisture  
Dew Point 38 °F    
Average Humidity 81    
Maximum Humidity 92    
Minimum Humidity 69    
Precipitation  
Precipitation 0.50 in 0.06 in 0.58 in (1982)
Month to date precipitation 2.00 1.56  
Year to date precipitation 2.00 1.56  
Snow  
Snow 0.00 in 0.40 in - ()
Month to date snowfall 5.9 8.5  
Since 1 July snowfall 10.6 18.0  
Snow Depth 0.00 in    
Sea Level Pressure  
Sea Level Pressure 29.63 in    
Wind  
Wind Speed 18 mph (SSW)    
Max Wind Speed 37 mph    
Max Gust Speed 48 mph    
Visibility 9 miles    
Events Rain , Thunderstorm    
T = Trace of Precipitation, MM = Missing Value Source: NWS Daily Summary

Daily Weather History Graph

Daily Weather History Graph

Search for Another Location

Airport or City:

Trip Planner

Search our weather history database for the weather conditions in past years. The results will help you decide how hot, cold, wet, or windy it might be!

Date:

Astronomy

Jan. 23, 2012 Rise Set
Actual Time 7:55 AM EST 5:39 PM EST
Civil Twilight 7:25 AM EST 6:09 PM EST
Nautical Twilight 6:51 AM EST 6:42 PM EST
Astronomical Twilight 6:18 AM EST 7:15 PM EST
Moon 7:49 AM EST (1/23) 6:26 PM EST (1/23)
Length of Visible Light 10h 44m
Length of Day
9h 43m
New Moon, 0% of the Moon is Illuminated
Jan 23
New Moon
Jan 30
First Quarter
Feb 7
Full
Feb 14
Last Quarter
Feb 21
New

Hourly Weather History & Observations

Time (EST) Temp. Windchill Dew Point Humidity Pressure Visibility Wind Dir Wind Speed Gust Speed Precip Events Conditions
12:24 AM 39.2 °F 34.2 °F 35.6 °F 87% 29.77 in 8.0 mi SSE 6.9 mph - N/A   Overcast
12:52 AM 39.9 °F 33.9 °F 37.0 °F 89% 29.77 in 9.0 mi SSE 9.2 mph - N/A   Overcast
1:52 AM 43.0 °F 37.7 °F 39.0 °F 86% 29.70 in 10.0 mi SE 9.2 mph 19.6 mph N/A   Overcast
2:11 AM 42.8 °F 38.0 °F 37.4 °F 81% 29.66 in 10.0 mi SSE 8.1 mph 19.6 mph 0.01 in   Mostly Cloudy
2:21 AM 42.8 °F 36.6 °F 37.4 °F 81% 29.65 in 10.0 mi SSE 11.5 mph 19.6 mph 0.01 in   Scattered Clouds
2:52 AM 44.1 °F 36.8 °F 37.9 °F 79% 29.65 in 10.0 mi SSE 16.1 mph 24.2 mph 0.01 in   Clear
3:28 AM 44.6 °F 38.1 °F 39.2 °F 81% 29.63 in 10.0 mi SSE 13.8 mph 21.9 mph N/A Rain , Thunderstorm Light Rain
3:42 AM 44.6 °F 38.8 °F 39.2 °F 81% 29.61 in 5.0 mi SSE 11.5 mph 19.6 mph 0.01 in Rain , Thunderstorm Rain
3:52 AM 44.1 °F 38.6 °F 41.0 °F 89% 29.59 in 2.5 mi SE 10.4 mph 20.7 mph 0.04 in Rain , Thunderstorm Thunderstorms and Rain
3:58 AM 44.6 °F 38.4 °F 41.0 °F 87% 29.57 in 3.0 mi SSE 12.7 mph 20.7 mph 0.03 in Rain , Thunderstorm Thunderstorms and Rain
4:17 AM 44.6 °F 39.2 °F 42.8 °F 93% 29.60 in 2.5 mi South 10.4 mph 24.2 mph N/A Rain , Thunderstorm Heavy Thunderstorms and Rain
4:22 AM 44.6 °F 38.8 °F 42.8 °F 93% 29.61 in 1.8 mi South 11.5 mph 24.2 mph N/A Rain Heavy Rain
4:41 AM 46.4 °F 40.1 °F 44.6 °F 93% 29.63 in 3.0 mi South 15.0 mph 26.5 mph 0.37 in Rain Rain
4:49 AM 46.4 °F 39.5 °F 44.6 °F 93% 29.63 in 7.0 mi South 17.3 mph 26.5 mph N/A Rain Light Rain
4:52 AM 46.9 °F - 45.0 °F 93% 29.64 in 9.0 mi South 16.1 mph 25.3 mph 0.37 in Rain Light Rain
4:59 AM 48.2 °F - 46.4 °F 93% 29.63 in 10.0 mi South 15.0 mph 24.2 mph 0.00 in   Overcast
5:52 AM 46.0 °F 41.4 °F 44.1 °F 93% 29.60 in 10.0 mi South 9.2 mph - 0.01 in   Overcast
6:52 AM 46.0 °F 41.9 °F 43.0 °F 89% 29.55 in 10.0 mi South 8.1 mph - 0.02 in   Partly Cloudy
7:52 AM 44.6 °F 39.7 °F 42.8 °F 93% 29.53 in 10.0 mi South 9.2 mph - N/A   Clear
8:52 AM 45.0 °F 39.3 °F 42.1 °F 90% 29.54 in 10.0 mi South 11.5 mph 19.6 mph 0.01 in   Clear
9:52 AM 48.0 °F - 43.0 °F 83% 29.53 in 10.0 mi South 11.5 mph 19.6 mph N/A   Scattered Clouds
10:39 AM 48.2 °F - 44.6 °F 87% 29.52 in 10.0 mi South 9.2 mph 19.6 mph N/A   Overcast
10:52 AM 48.9 °F - 45.0 °F 86% 29.53 in 10.0 mi SSW 12.7 mph 19.6 mph N/A   Overcast
11:52 AM 51.1 °F - 45.0 °F 80% 29.50 in 10.0 mi South 9.2 mph - N/A   Overcast
12:25 PM 51.8 °F - 46.4 °F 82% 29.47 in 10.0 mi SSW 15.0 mph 23.0 mph N/A   Overcast
12:52 PM 51.1 °F - 46.0 °F 83% 29.48 in 7.0 mi SW 13.8 mph 26.5 mph 0.01 in Rain Light Rain
1:16 PM 51.8 °F - 46.4 °F 82% 29.47 in 10.0 mi SW 16.1 mph 28.8 mph 0.02 in Rain Light Rain
1:38 PM 48.2 °F - 44.6 °F 87% 29.48 in 10.0 mi SW 21.9 mph 33.4 mph 0.02 in Rain Light Rain
1:52 PM 48.9 °F - 44.1 °F 83% 29.50 in 9.0 mi WSW 20.7 mph 35.7 mph 0.02 in Rain Light Rain
2:21 PM 44.6 °F 36.6 °F 41.0 °F 87% 29.51 in 10.0 mi WSW 19.6 mph 33.4 mph 0.01 in   Overcast
2:52 PM 42.8 °F 31.9 °F 37.4 °F 81% 29.54 in 10.0 mi WSW 32.2 mph 44.9 mph N/A   Overcast
3:52 PM 37.9 °F 26.1 °F 33.1 °F 83% 29.60 in 9.0 mi WSW 27.6 mph 41.4 mph N/A   Overcast
4:16 PM 37.4 °F 24.8 °F 32.0 °F 81% 29.61 in 6.0 mi WSW 31.1 mph 41.4 mph N/A   Haze
4:52 PM 36.0 °F 24.7 °F 30.0 °F 79% 29.65 in 10.0 mi WSW 21.9 mph 36.8 mph N/A   Overcast
5:52 PM 35.1 °F 23.3 °F 30.0 °F 82% 29.69 in 9.0 mi SW 23.0 mph 35.7 mph N/A   Overcast
6:52 PM 35.1 °F 22.2 °F 28.9 °F 78% 29.73 in 9.0 mi WSW 27.6 mph 36.8 mph N/A   Overcast
7:52 PM 35.1 °F 23.3 °F 27.0 °F 72% 29.78 in 10.0 mi WSW 23.0 mph 34.5 mph N/A   Overcast
8:52 PM 34.0 °F 19.7 °F 25.0 °F 70% 29.81 in 10.0 mi WSW 33.4 mph 42.6 mph N/A   Overcast
9:52 PM 34.0 °F 21.0 °F 25.0 °F 70% 29.84 in 10.0 mi WSW 26.5 mph 35.7 mph N/A   Overcast
10:52 PM 33.1 °F 18.7 °F 24.1 °F 70% 29.86 in 10.0 mi WSW 32.2 mph 39.1 mph N/A   Overcast
11:08 PM 32.0 °F 18.4 °F 21.2 °F 64% 29.86 in 10.0 mi West 26.5 mph 38.0 mph N/A   Overcast
11:34 PM 32.0 °F 20.5 °F 23.0 °F 69% 29.87 in 10.0 mi WSW 18.4 mph 29.9 mph N/A   Overcast
11:52 PM 32.0 °F 20.1 °F 24.1 °F 73% 29.89 in 10.0 mi West 19.6 mph 27.6 mph N/A   Overcast